George Bush Intercontinental Houston Airport Houston US
ICAO: KIAH
IATA: IAH
Category: Large
Scheduled Services: Yes

Elevation: 97 ft
TransAlt. 18000 ft.

Airport Communications:
APP:120.05
ATIS:124.05
CLNC DEL:128.1
DEP:28.14
DEP:119.7
GND:118.575
MONTGOMERY CO RDO:122.4
TWR:29.02
TWR:120.725
UNICOM:122.95

KIAH Zoom In..

If you have problems with the map follow the link
https://www.worldairports.se/pages/airport.php?
ICAO=KIAH

Runways:

(A) RW 08L length 9000 ft width 150 ft
ILS 111.55 / hdg 85

(B) RW 08R length 9402 ft width 150 ft
ILS 109.70 / hdg 85

(C) RW 09 length 10000 ft width 150 ft
ILS 110.90 / hdg 85

(D) RW 15L length 12001 ft width 150 ft
---- / hdg 147

(E) RW 15R length 10000 ft width 150 ft
ILS 111.15 / hdg 147

(F) RW 26L length 9402 ft width 150 ft
ILS 109.70 / hdg 265

(G) RW 26R length 9000 ft width 150 ft
ILS 111.55 / hdg 265

(H) RW 27 length 10000 ft width 150 ft
ILS 110.90 / hdg 265

(I) RW 33L length 10000 ft width 150 ft
---- / hdg 327

(J) RW 33R length 12001 ft width 150 ft
ILS 111.90 / hdg 327

Location; KIAH
Day. 17 / Time. 01.53 Zulu
* Altimeter: 30.16
* Temperature: 13° c. 55.4°f.
* Wind from: 160° Speed 05 kn.
Dewpoint: 07° c.
Visibility: 10 Statute Miles.
Clouds: Few 25000 ft.

KIAH 170153Z 16005KT 10SM FEW250 13/07 A3016 RMK AO2 SLP213 T01280067


Wind From 160°
Speed 05 kn.

 
 
jpsmedia.com for Web Design worldairports.se 2018   terms of use